Location: Newark
(15.4211°N, 108.6697°E)
Time: 01:17:54
(UTC+00:00)

ISS - Visible Passes

Search period start: 06 December 2019 00:00
Search period end: 16 December 2019 00:00
Orbit: 411 x 421 km, 51.6° (Epoch: 06 December)

Date Brightness Start Highest point End Pass type
(mag) Time Alt. Az. Time Alt. Az. Time Alt. Az.
12 Dec -3.6 11:20:53 10° NNW 11:24:08 48° NE 11:24:56 38° E visible
13 Dec -2.4 10:32:55 10° N 10:35:34 21° NE 10:38:13 10° ESE visible
13 Dec -0.5 12:10:15 10° W 12:12:05 14° SW 12:13:55 10° SSW visible
14 Dec -1.7 11:20:38 10° WNW 11:23:37 30° SW 11:26:36 10° S visible
